Tracking 17142 objects as of 28-May-2015
HD Live streaming from Space Station

NAVSTAR 36 (USA 100)

Track NAVSTAR 36 (USA 100) now!
NAVSTAR 36 (USA 100) is classified as:


NORAD ID: 23027
Int'l Code: 1994-016A
Perigee: 19,925.6 km
Apogee: 20,453.6 km
Inclination: 54.4 °
Period: 718.0 minutes
Semi major axis: 26560 km
RCS: 2.0263 m2 (large)
Launch date: March 10, 1994
Source: United States (US)
PRN:
Your satellite tracking list
Your tracking list is empty





NASA's NSSDC Master Catalog

Two Line Element Set (TLE):
1 23027U 94016A   15147.33759993 -.00000065  00000-0  00000+0 0  9991
2 23027 054.3694 065.9773 0099396 003.2004 113.0048 02.00560870155432

Source of the keplerian elements: AFSPC

N2YO: 308